Theta_e
297 297 296 297 297 296 296 297 297 297 297 297 297 296 295 294 291 291 292 291 291 291 290 289 289 291 291 291 293 289 289 288 288 289 290 288 284 286 286 289 289 290 290 289 286 283 291 289 290 292 288 285 284 281
296 296 296 296 296 296 296 296 296 295 295 295 295 296 295 294 291 291 291 291 291 290 289 288 287 287 288 288 287 286 289 287 291 290 286 284 286 278 279 285 285 289 288 289 289 289 285 283 285 282 284 285 284 285
296 296 295 296 297 296 296 295 295 295 295 295 295 294 294 293 292 290 290 290 290 288 288 288 288 287 288 288 288 289 287 286 286 280 282 284 286 283 284 284 285 286 283 285 286 285 283 282 281 280 281 281 281 282
295 295 295 295 295 294 294 295 294 294 294 293 294 293 293 292 291 289 288 288 289 286 287 287 286 286 286 287 288 288 285 283 280 279 277 278 284 284 282 282 282 282 283 286 283 278 279 279 280 279 278 277 276 275
295 295 294 295 294 294 294 294 294 294 293 293 293 292 291 291 290 289 288 287 287 287 288 286 284 285 286 287 286 286 284 278 274 278 276 281 279 279 279 276 278 276 281 285 285 276 276 277 277 277 277 276 275 273
294 295 294 294 293 293 294 294 293 292 293 293 292 292 290 290 288 289 286 287 287 286 282 282 284 285 285 287 287 283 280 273 273 277 272 269 270 275 277 281 273 270 271 273 274 274 274 274 274 275 274 272 271 270
294 293 294 294 293 293 293 292 292 292 292 292 292 291 289 288 288 287 287 287 286 287 281 277 280 282 284 285 285 286 281 273 274 278 276 274 277 273 273 278 271 269 271 272 272 272 275 274 273 272 272 271 270 267
293 294 294 293 293 293 293 292 291 291 290 290 290 289 287 287 287 286 286 286 286 284 281 276 277 280 284 285 285 285 281 276 276 278 279 279 278 281 280 268 262 264 267 269 270 269 270 270 270 270 269 268 267 264
292 292 292 292 291 292 293 292 291 290 290 290 288 288 286 286 285 286 285 285 285 283 276 273 277 278 283 284 283 279 275 276 275 280 280 279 274 277 270 264 263 266 267 267 269 269 269 270 269 267 265 263 263 260
290 291 291 291 291 291 290 290 290 290 289 288 287 285 278 286 285 284 283 275 275 272 274 277 278 279 278 280 277 275 275 275 274 275 278 281 270 265 259 260 261 262 263 265 267 268 267 267 265 262 261 262 264 264
290 290 291 291 290 289 290 290 289 289 288 287 284 285 286 285 283 270 272 275 272 276 278 278 275 277 278 278 278 278 273 271 273 276 277 271 271 265 258 260 260 262 263 264 264 263 264 262 262 260 260 264 265 265
290 290 291 290 290 290 289 289 288 288 287 286 286 286 283 273 271 277 267 271 276 281 278 279 278 277 278 277 275 272 273 272 276 275 274 272 271 260 256 259 259 261 263 263 265 265 266 267 267 266 266 266 266 266
291 291 291 291 290 290 289 287 287 287 286 285 280 271 273 272 279 275 280 277 278 280 279 277 278 278 277 273 268 270 280 274 275 271 273 272 266 261 257 257 260 262 263 264 265 266 266 267 267 267 267 267 267 266
292 291 291 290 289 289 287 286 286 286 286 274 272 276 275 274 272 273 276 277 278 277 279 277 277 275 275 273 265 274 271 272 271 272 273 269 267 265 261 259 263 263 263 264 265 266 266 266 266 266 266 265 264 264
291 291 290 289 289 288 286 285 285 285 284 274 273 275 275 275 271 272 271 274 277 277 278 276 276 271 271 273 269 270 272 272 275 275 274 273 271 271 269 267 266 267 266 265 266 266 266 266 265 265 265 264 264 263
291 289 288 288 288 285 284 284 283 283 282 276 271 272 270 273 273 273 272 274 276 276 275 272 268 270 271 270 274 270 273 272 275 274 276 275 273 271 269 269 269 269 268 268 268 267 267 266 266 265 265 264 264 263
290 288 288 287 286 282 283 284 283 274 271 274 274 271 274 273 274 274 278 276 273 272 272 265 272 274 268 268 272 274 277 277 277 277 275 272 271 270 268 269 269 269 269 269 268 268 267 267 265 264 263 265 264 264
288 288 287 286 284 282 283 282 274 267 273 266 273 271 273 275 275 276 272 270 270 269 268 271 268 269 269 272 275 276 276 276 275 274 273 269 268 268 268 268 268 268 268 267 267 267 266 265 263 263 264 264 264 264
287 287 286 284 281 282 280 276 275 271 268 266 268 271 272 274 271 270 268 267 268 271 268 265 267 268 270 272 275 275 274 273 272 269 267 268 268 268 268 267 267 267 267 266 266 266 265 265 265 265 265 264 263 263
285 285 283 281 280 282 270 268 272 270 275 268 265 265 263 265 266 264 261 262 263 262 267 267 267 267 269 270 269 267 266 265 264 263 263 264 267 267 268 268 267 267 266 266 266 266 266 266 266 265 265 264 263 263
283 281 280 280 280 278 265 258 264 259 260 265 258 259 262 258 258 257 257 258 259 259 263 262 262 261 265 266 265 266 265 265 260 260 261 261 267 267 267 267 266 266 265 265 263 264 266 265 266 265 265 265 265 265
279 279 279 279 276 272 263 260 262 259 263 261 261 256 257 262 257 254 252 255 256 263 261 260 260 261 262 261 266 266 266 265 265 265 267 267 263 265 266 266 264 265 264 264 264 263 264 266 266 265 265 265 266 265
277 278 278 275 269 267 268 261 266 259 270 265 256 265 260 256 252 251 257 255 259 260 263 263 265 265 265 265 265 266 266 266 265 266 266 267 267 267 266 267 266 265 263 265 266 265 265 265 266 266 265 265 265 264
276 272 264 264 261 270 259 262 255 258 257 260 260 268 261 255 252 254 262 258 260 260 260 263 264 259 262 263 261 266 267 267 267 267 268 267 267 268 267 267 267 266 266 265 264 264 264 264 264 264 264 263 263 263
271 270 265 268 255 266 265 265 261 263 267 256 261 261 259 250 258 256 261 262 257 258 259 262 262 263 260 257 263 267 268 268 267 266 269 268 268 267 267 267 267 268 267 265 265 265 265 265 264 264 263 263 263 263
272 264 269 264 265 271 266 271 264 263 258 259 257 253 249 255 262 264 263 260 259 260 261 262 263 260 259 263 261 266 269 269 267 266 269 268 267 265 263 262 263 265 268 267 266 265 265 264 264 263 263 264 266 267
271 268 261 261 261 261 264 258 259 259 261 261 258 259 259 265 262 266 263 262 261 270 272 272 270 267 267 268 269 269 269 268 268 268 268 268 268 267 266 263 264 267 267 266 266 266 264 264 263 264 263 264 264 264
265 262 269 262 262 257 264 258 257 260 261 259 261 265 265 267 269 266 264 269 268 269 271 271 270 269 269 269 268 268 268 267 267 267 267 268 268 268 268 267 268 268 267 267 267 267 267 266 265 264 264 264 265 266
264 261 263 264 258 257 263 266 265 262 262 261 263 263 265 264 264 266 268 268 267 267 268 269 269 267 267 267 267 267 266 267 266 260 262 266 267 267 267 267 267 266 266 266 266 267 268 268 268 268 267 266 266 266
262 256 262 258 264 269 266 260 258 252 254 253 253 256 258 259 264 264 264 263 261 260 262 263 264 265 265 265 266 268 268 268 267 266 266 266 266 266 266 266 267 267 267 266 266 266 267 267 267 267 267 266 266 265
257 256 259 257 261 259 253 250 250 251 248 245 246 251 255 253 259 264 263 261 260 259 261 263 265 266 267 267 267 267 266 267 267 266 266 266 266 266 266 267 267 268 267 267 267 267 266 266 265 265 265 265 265 266
256 256 258 262 261 252 249 248 246 248 246 248 251 244 250 252 256 260 264 263 263 265 267 267 266 266 267 266 266 266 266 265 266 265 265 266 266 267 268 268 269 268 268 268 268 268 268 267 266 265 265 265 265 265
250 249 248 251 256 257 253 252 253 254 251 251 252 250 249 253 257 260 265 265 265 265 266 266 266 266 266 266 265 265 265 265 264 265 266 267 268 268 268 268 268 268 267 267 267 267 267 267 267 267 267 266 266 265
Wind_Speed
16 17 19 20 22 25 25 25 25 26 27 28 28 29 28 26 22 9 3 14 2 2 1 3 3 1 2 1 3 3 4 2 2 2 3 3 3 4 3 4 6 7 7 4 3 2 8 3 4 6 3 3 4 4
16 17 18 20 21 23 24 24 25 25 27 27 27 26 25 26 22 12 2 10 6 4 2 5 9 7 4 2 2 1 2 3 4 3 1 3 2 1 2 3 1 1 5 5 8 5 1 2 3 1 1 4 4 9
15 16 18 20 21 22 22 24 23 25 26 27 27 24 23 23 21 17 5 15 3 3 2 2 3 4 11 6 1 2 1 2 2 1 3 2 2 3 3 5 1 3 3 2 3 2 2 1 3 3 4 7 7 9
15 17 18 18 21 21 22 22 23 24 26 28 28 24 21 20 16 15 9 17 4 1 3 1 3 4 10 8 2 1 4 5 5 2 2 3 2 1 2 2 3 3 4 4 2 2 1 2 1 5 8 8 9 8
15 16 17 20 22 23 23 21 22 25 26 27 27 22 19 16 11 3 15 22 21 1 2 2 2 7 7 10 8 6 6 3 2 2 2 2 1 3 1 2 2 2 4 4 4 2 3 1 6 6 6 6 5 7
16 17 17 20 23 25 22 21 23 27 28 29 27 19 17 14 14 2 2 8 22 11 3 2 1 5 10 6 9 10 5 3 2 3 1 1 2 3 3 3 1 1 2 1 2 3 5 6 5 5 7 8 9 9
15 16 17 18 22 23 22 24 25 28 30 31 25 16 11 10 10 8 3 11 16 5 2 2 2 4 5 4 4 2 6 2 3 2 2 2 1 3 2 3 2 2 4 4 5 4 5 2 3 6 11 11 12 11
17 16 16 20 21 21 23 24 27 29 32 30 21 8 5 1 0 2 13 16 10 4 3 3 2 3 7 3 2 2 2 2 4 2 1 2 1 1 2 2 3 3 2 6 5 4 4 9 8 7 9 8 5 4
17 17 19 20 22 23 21 25 28 31 33 24 20 3 1 5 6 9 18 6 6 6 3 3 2 2 4 2 2 3 2 3 2 1 0 2 1 2 3 2 2 2 1 5 3 6 6 5 6 4 3 3 4 2
19 19 20 21 20 21 23 26 29 30 27 19 8 4 3 5 17 6 2 4 5 4 4 2 1 2 2 2 2 2 2 1 1 2 1 0 2 3 3 4 3 3 2 1 4 2 2 2 2 2 2 3 5 5
20 19 20 19 16 20 24 25 26 28 12 10 8 3 10 15 3 4 3 4 3 4 3 2 1 1 2 2 1 1 1 1 2 3 2 2 3 3 2 2 2 2 1 0 0 1 1 3 5 5 3 5 5 4
19 19 18 14 16 23 24 24 24 22 14 12 11 9 5 6 3 6 1 3 5 1 3 2 2 1 2 1 2 3 2 3 2 2 3 3 3 3 2 2 2 1 1 2 2 3 4 5 6 5 5 5 5 4
19 17 17 17 17 23 25 25 23 18 16 2 4 4 4 4 9 6 5 4 3 4 3 3 3 2 2 3 3 3 1 2 1 3 2 3 3 3 4 3 3 3 2 1 2 3 3 3 3 4 3 4 5 7
14 16 17 15 17 23 25 25 20 10 3 3 4 6 4 4 1 3 3 2 2 2 3 1 2 2 2 3 1 3 2 2 3 2 2 2 2 2 3 2 2 3 7 7 7 6 6 5 6 6 7 6 7 10
13 14 13 13 21 22 22 18 10 7 4 3 4 2 2 2 2 2 2 2 2 2 2 2 1 2 2 2 2 3 5 2 2 2 1 1 1 2 3 3 4 4 6 8 9 10 11 10 9 10 9 9 10 11
12 13 4 18 20 20 16 9 9 3 3 3 5 3 2 2 3 2 0 2 2 3 1 2 1 3 2 1 3 3 3 3 1 1 2 2 2 1 1 2 3 5 6 8 8 10 10 10 11 11 9 10 11 12
10 4 15 17 19 18 11 3 4 5 3 3 0 1 1 1 3 2 1 2 7 2 1 2 3 5 1 3 3 1 1 0 2 2 2 1 2 1 1 2 2 2 4 5 6 6 8 8 9 10 11 14 10 11
5 12 16 17 17 11 4 7 4 4 4 1 2 3 2 1 1 1 1 2 2 1 2 2 3 2 3 3 1 0 0 0 1 1 1 1 2 1 2 3 4 3 4 4 5 7 8 9 11 15 16 16 14 15
10 11 14 13 12 4 4 4 5 2 3 1 2 1 0 1 3 2 1 5 3 2 3 2 3 3 2 2 1 1 1 2 1 1 1 0 1 3 3 4 6 7 8 7 8 9 11 12 15 17 18 17 19 21
8 10 9 11 7 2 4 3 3 3 0 2 2 2 1 1 2 1 2 3 2 2 2 1 4 3 3 1 1 1 1 1 1 2 2 2 1 2 4 6 9 10 12 12 13 12 14 17 18 18 18 19 19 22
8 3 8 5 3 6 5 1 3 2 2 1 2 1 2 2 2 3 2 4 3 2 2 3 3 2 0 1 2 3 3 4 3 3 3 2 5 7 10 10 10 11 12 14 14 18 14 18 22 19 19 20 22 24
3 7 3 3 4 3 4 3 2 1 1 1 1 1 2 2 2 2 2 2 2 3 3 3 2 2 0 0 1 3 3 3 4 5 5 6 2 4 8 12 10 11 15 17 17 17 20 21 21 20 19 22 19 20
4 1 2 5 4 4 3 3 3 5 1 3 2 3 3 2 2 3 1 2 3 4 3 3 2 4 3 2 3 4 5 5 5 5 5 6 8 10 12 15 14 15 16 21 19 19 22 20 19 19 21 18 18 20
2 4 4 2 2 2 2 4 2 3 3 4 3 5 4 2 3 3 2 3 3 1 2 4 7 2 0 1 2 5 7 6 5 5 4 5 8 11 13 17 17 18 19 22 23 24 23 23 17 17 18 19 19 19
4 4 4 3 2 4 5 5 5 4 2 1 1 4 3 3 2 2 2 3 2 2 2 6 7 5 3 2 4 9 9 9 8 5 5 6 8 13 18 19 20 21 19 17 20 20 21 20 19 19 19 19 19 22
1 3 1 4 2 2 3 1 2 3 1 3 5 2 2 2 2 5 3 3 3 4 5 7 6 2 3 14 5 9 15 14 12 9 10 9 9 13 15 11 13 18 21 19 19 21 23 25 24 23 21 21 22 21
0 4 1 1 2 3 2 3 2 2 1 4 3 1 3 1 4 4 2 5 3 9 14 20 18 17 13 15 20 18 11 12 13 12 14 19 22 25 26 21 18 25 28 28 28 28 26 25 24 25 25 25 26 26
2 2 3 2 1 1 3 1 3 5 4 2 2 2 5 7 5 3 4 3 8 9 7 11 13 15 16 16 11 10 12 13 14 17 22 25 19 20 23 25 28 26 29 28 27 25 24 26 27 28 28 29 30 28
1 1 2 2 1 1 4 6 5 3 1 3 4 4 5 3 3 3 5 11 15 13 10 11 12 11 12 13 15 16 15 14 12 5 8 9 15 16 18 21 27 31 32 31 29 26 26 26 25 26 28 28 27 24
2 1 2 1 3 4 2 2 2 2 1 1 2 3 3 4 5 11 12 17 14 10 7 5 6 6 6 7 8 8 8 10 10 14 8 10 18 27 31 32 33 33 32 28 27 29 28 26 25 24 23 23 19 18
0 2 1 1 4 2 1 4 4 2 3 2 2 2 3 4 8 5 14 17 12 5 4 6 9 10 9 8 8 10 14 17 18 21 23 26 29 29 30 32 34 35 34 30 28 26 25 25 22 21 21 21 24 22
1 2 3 2 4 2 5 3 2 1 2 2 2 1 3 3 3 4 13 13 13 16 14 15 13 15 16 13 12 14 15 18 20 22 24 26 26 26 29 29 26 23 26 21 18 19 20 23 24 22 21 22 24 24
2 2 1 2 4 5 3 4 3 5 2 2 2 2 2 2 4 3 5 9 6 7 11 20 22 22 17 13 16 15 15 19 21 21 22 22 24 25 23 27 24 16 18 21 21 21 20 20 22 24 25 24 24 25
Wind_Direction
40 35 33 28 23 20 19 18 16 15 13 10 8 7 7 9 14 7 20 19 19 112 55 16 9 102 59 87 153 182 81 321 55 152 156 213 145 220 98 155 177 163 152 183 96 78 276 124 106 166 190 47 105 113
33 30 26 22 19 16 16 16 16 12 9 6 5 2 3 4 11 9 359 2 34 80 99 77 80 60 50 13 131 131 188 163 178 101 121 104 167 72 141 230 39 263 181 179 183 210 105 51 76 11 337 125 123 129
30 26 22 17 15 12 12 12 9 7 6 4 1 359 1 2 4 10 3 4 63 106 73 103 40 44 34 16 56 141 276 152 56 171 152 146 180 127 162 238 140 252 172 141 77 190 153 114 68 53 65 102 108 121
28 22 19 19 13 11 6 3 5 3 1 360 358 355 357 359 1 16 56 19 28 78 117 73 26 37 357 360 10 2 129 94 86 53 102 134 149 117 210 175 148 195 112 163 275 304 35 253 137 122 98 94 92 75
20 17 14 12 8 4 0 359 360 359 356 352 352 348 351 348 349 1 60 41 28 49 164 130 104 17 17 45 62 83 97 91 82 57 75 211 119 106 38 62 272 194 183 166 218 191 142 137 136 126 106 100 92 106
14 9 4 2 5 3 3 2 360 352 351 348 346 343 346 347 340 173 10 26 4 2 91 83 51 9 13 30 45 53 59 69 79 115 180 277 250 99 108 201 255 348 349 337 149 87 78 88 64 74 93 99 96 100
9 3 356 358 4 6 2 355 353 349 346 344 341 340 350 6 61 76 91 319 336 344 85 61 22 342 347 352 11 12 42 50 90 92 58 139 81 78 104 198 84 25 22 43 54 91 78 40 117 83 104 103 107 100
7 1 3 356 355 352 350 348 347 344 340 339 336 338 357 67 29 346 4 343 352 86 56 93 305 23 358 20 22 351 20 20 15 110 78 105 58 27 254 291 310 312 352 49 33 47 99 111 100 90 104 109 93 90
9 5 359 353 350 350 349 347 344 339 336 336 335 333 66 35 14 323 325 328 13 65 102 69 83 298 331 34 19 1 47 41 302 87 40 86 331 219 241 238 239 244 169 165 77 69 75 92 110 92 91 72 121 158
3 3 359 353 351 352 352 346 344 340 339 337 352 29 11 348 319 319 16 24 16 343 29 78 315 329 33 19 338 36 18 63 81 277 331 115 263 256 244 234 272 290 223 97 77 48 65 70 130 147 161 151 157 160
359 358 357 355 2 353 350 348 347 345 349 1 9 355 322 324 338 30 37 60 332 31 16 356 69 326 347 31 302 47 190 353 63 277 109 336 325 274 315 338 329 310 351 328 43 117 92 164 166 164 183 197 189 187
343 343 352 353 355 354 350 346 344 346 340 313 295 309 319 24 26 70 355 333 43 29 330 13 309 280 308 48 88 332 116 40 240 298 66 346 268 275 319 295 296 318 95 97 87 111 95 102 146 166 177 197 221 246
331 335 342 336 335 344 343 342 339 328 325 22 46 43 29 321 36 59 359 336 14 345 355 338 323 333 340 55 59 55 49 232 324 46 217 223 278 272 228 236 271 225 196 189 177 176 172 177 202 225 240 254 262 271
327 333 336 334 341 341 340 342 343 340 15 69 60 16 68 354 16 185 201 219 280 281 315 290 294 29 340 29 149 74 231 46 42 23 241 263 261 270 206 229 173 229 215 226 231 225 226 231 244 248 249 254 260 271
324 332 330 346 343 341 342 347 10 31 37 73 65 51 71 245 243 244 267 304 264 263 333 346 10 65 333 50 55 61 21 314 199 223 203 222 177 147 174 197 221 235 225 231 234 230 238 238 237 249 247 250 259 272
322 320 316 342 341 343 344 358 18 40 56 67 48 68 286 56 318 343 316 273 2 324 39 46 87 38 314 119 34 231 116 241 270 144 134 146 96 110 204 244 258 258 244 246 243 243 246 240 237 251 259 261 268 272
308 298 326 335 340 344 354 22 5 40 101 58 318 290 140 154 203 231 323 314 333 46 309 96 50 233 9 23 337 210 79 112 155 107 89 106 129 133 8 355 345 302 274 266 258 254 251 255 249 247 255 274 279 275
317 315 323 333 340 350 17 20 75 67 55 297 99 267 326 108 245 78 17 0 23 91 98 217 122 77 210 175 200 350 93 124 63 111 188 108 102 98 15 354 351 323 288 281 277 276 265 249 242 254 268 278 282 278
323 315 323 333 345 355 30 18 28 107 223 232 277 336 52 49 73 62 18 346 300 308 114 56 91 194 224 206 169 337 45 17 291 285 295 79 77 41 359 321 304 297 290 284 279 275 275 268 264 273 275 277 268 274
302 304 330 338 350 76 38 341 9 92 273 266 5 4 248 242 329 45 13 11 12 84 61 171 205 210 188 199 153 188 202 173 123 3 316 330 102 317 317 313 304 302 297 292 285 281 281 282 279 274 272 272 269 270
301 321 340 355 59 60 82 352 29 146 274 96 317 25 273 6 25 12 341 347 56 184 229 214 218 244 171 238 250 234 249 207 195 178 207 293 327 304 302 307 306 298 286 288 284 290 285 271 282 288 285 278 275 274
323 334 342 35 75 56 77 34 143 274 110 237 359 23 358 335 328 322 300 40 225 230 192 177 214 180 86 263 214 233 247 254 255 271 273 276 304 305 302 309 307 292 296 291 288 278 285 293 297 295 288 287 286 280
330 356 56 23 60 47 266 354 55 0 39 295 7 0 324 329 243 339 303 224 260 247 217 198 185 183 213 244 259 238 216 221 228 242 247 259 285 297 302 311 312 291 290 295 301 295 293 297 291 287 287 285 283 283
14 49 63 54 61 235 10 14 38 29 31 23 26 304 322 285 326 45 247 261 253 289 208 211 176 103 140 246 244 218 203 209 230 257 244 261 290 321 326 319 322 321 313 306 301 299 297 296 294 287 289 290 289 285
62 332 71 334 323 45 24 354 346 33 273 293 329 297 312 359 20 333 243 274 275 246 220 184 192 199 177 236 247 232 212 209 206 224 220 240 277 303 317 322 317 320 324 309 297 299 299 299 294 292 291 289 282 284
78 301 122 198 274 112 199 337 236 228 183 297 238 273 17 73 37 259 239 229 228 209 199 198 192 183 247 224 213 218 219 216 221 237 268 281 284 293 292 294 298 299 325 305 296 288 292 296 293 290 282 283 287 290
248 258 271 314 108 103 61 49 43 108 234 218 250 16 57 358 255 254 266 223 221 234 235 226 217 210 227 235 230 227 221 223 226 254 279 291 296 296 291 269 273 293 313 307 299 293 281 278 276 279 277 280 279 278
185 144 189 223 74 17 164 119 167 212 229 209 94 218 191 200 234 235 216 333 296 271 262 231 235 246 257 259 256 243 236 253 271 283 290 293 306 307 307 300 287 294 302 300 295 287 285 283 276 272 270 267 274 282
91 18 103 298 346 250 223 198 220 226 175 154 177 241 244 231 275 329 341 326 311 305 284 283 282 289 274 282 281 275 278 286 287 294 295 299 306 307 315 306 300 299 301 304 307 302 295 291 279 273 274 271 276 280
282 315 112 177 192 238 236 180 248 274 313 237 290 307 290 274 312 326 345 346 339 316 310 331 352 349 332 327 332 350 341 319 298 269 276 294 301 306 311 313 311 311 307 297 291 294 303 302 304 302 302 299 288 276
44 72 45 204 244 254 262 309 296 283 8 354 352 191 259 312 319 345 357 357 5 50 88 70 65 57 39 19 350 332 324 329 319 312 306 305 301 302 307 309 308 305 300 295 294 290 287 290 289 286 285 283 287 287
36 156 149 280 282 293 20 28 324 336 330 9 288 306 314 357 307 301 14 38 83 91 75 44 23 1 353 342 330 317 303 300 306 312 309 307 309 308 303 302 302 306 307 310 318 313 307 296 287 283 279 279 281 283
46 42 45 342 321 331 336 4 5 327 355 324 281 226 222 188 238 284 30 33 43 38 13 356 352 349 344 336 331 329 323 319 318 315 315 315 314 315 318 307 315 335 335 332 323 314 306 301 295 292 289 286 284 285